Regional Weather Roundup
Issued by NWS

Home | Current Version | Previous Version | Text Only | Print | Product List | Glossary Off
Versions: 1 2 3 4 5 6 7 8 9 10 11 12 13 14 15 16 17 18 19 20 21 22 23 24 25 26 27 28 29 30 31 32 33 34 35 36 37 38 39 40 41 42 43 44 45 46 47 48 49 50

000
ASUS43 KLMK 130710
RWRKY
KENTUCKY REGIONAL WEATHER ROUNDUP
NATIONAL WEATHER SERVICE LOUISVILLE KY
200 AM EST SAT FEB 13 2016

NOTE "FAIR" INDICATES FEW OR NO CLOUDS BELOW 12,000 FEET
WITH NO SIGNIFICANT WEATHER AND/OR OBSTRUCTIONS TO VISIBILITY.

KYZ001>023-026-027-061>063-070>075-130800-
WESTERN AND SOUTH CENTRAL KENTUCKY

CITY           SKY/WX    TMP DP  RH WIND       PRES   REMARKS
PADUCAH        CLEAR     24   8  50 NW16G22   30.50R WCI  11
HENDERSON      CLEAR     21   5  49 N12G17    30.48R WCI   9
OWENSBORO      PTCLDY    22   7  52 N10       30.47R WCI  11
HOPKINSVILLE   CLEAR     24  13  62 N8G17     30.45R WCI  15
BOWLING GREEN  PTCLDY    25  13  60 NW6       30.42R WCI  18
GLASGOW        CLOUDY    24  12  60 NW8       30.39R WCI  15
$$

KYZ024-025-028>034-038-045-046-053-130800-
NORTH CENTRAL KENTUCKY

CITY           SKY/WX    TMP DP  RH WIND       PRES   REMARKS
LOUISVILLE/SDF PTCLDY    22   4  46 NW10      30.39R WCI  11
LOUISVILLE/LOU PTCLDY    22   5  48 NW12      30.38R WCI  10
FORT KNOX      CLEAR     21   5  50 NW13      30.36R WCI   8
$$

KYZ035>037-039>044-047>052-055>060-089>105-130800-
NORTHEAST KENTUCKY

CITY           SKY/WX    TMP DP  RH WIND       PRES   REMARKS
LEXINGTON      FLURRIES  20  12  71 NW14G21   30.32R WCI   7
COVINGTON      MOCLDY    18   6  59 N12       30.32R WCI   5
FRANKFORT      CLOUDY    21   5  50 NW14G21   30.33S WCI   8
$$

KYZ054-064>069-076>088-106>120-130800-
SOUTHEAST KENTUCKY

CITY           SKY/WX    TMP DP  RH WIND       PRES   REMARKS
JACKSON        CLOUDY    21   7  54 W9        30.26R WCI  11
LONDON         FLURRIES  23  12  62 N14G23    30.29R WCI  11
SOMERSET       CLOUDY    23  12  63 NW8       30.35R WCI  14
MIDDLESBORO    FLURRIES  25  18  74 NW9G18    30.29R WCI  16
MONTICELLO     FLURRIES  25  15  66 NW14G20   30.34S WCI  13
$$




USA.gov is the U.S. government's official web portal to all federal, state and local government web resources and services.